Dewpoint
56 56 55 55 54 55 54 54 54 53 54 54 54 54 54 53 52 37 25 38 41 48 47 32 20 23 29 31 34 34 26 22 19 17 18 21 21 25 28 25 27 26 26 25 27
58 58 57 56 55 55 54 54 54 53 53 53 53 53 53 54 41 27 34 44 45 47 31 19 17 21 23 28 30 29 25 20 14 16 17 22 21 25 25 22 22 25 27 27 26
59 59 58 57 56 55 54 54 54 53 53 52 52 52 54 50 31 11 39 43 44 42 30 20 20 21 24 27 26 25 21 17 14 17 22 23 23 25 26 24 23 24 25 25 24
60 60 59 58 57 57 56 55 54 54 52 52 52 51 54 40 24 15 34 37 41 35 23 20 20 22 25 22 22 19 18 18 22 23 25 24 28 26 27 27 25 25 25 24 21
61 61 60 59 59 58 57 56 55 54 52 52 52 51 43 27 22 12 29 22 22 21 19 19 17 18 19 18 18 17 18 22 22 26 24 25 27 29 27 28 25 26 24 22 21
62 62 61 60 59 58 57 57 56 55 53 52 52 51 37 28 12 12 12 15 16 18 23 22 20 19 17 16 20 20 19 19 21 23 23 23 25 27 28 29 25 27 21 20 22
63 63 62 61 60 60 58 57 56 56 53 52 51 40 29 26 14 14 19 18 19 18 21 26 26 25 22 25 22 19 17 21 18 21 22 29 26 25 28 29 28 26 21 22 26
59 60 62 61 61 60 59 57 56 55 53 51 49 36 28 13 15 10 23 22 23 25 25 29 32 30 25 24 21 22 22 23 20 20 29 26 15 26 29 29 29 22 21 24 25
57 57 58 60 61 60 59 57 56 55 47 48 41 32 26 23 12 17 25 22 27 30 31 27 30 30 26 26 30 33 20 18 16 22 28 25 21 29 29 28 26 23 25 26 27
57 57 57 57 58 59 58 54 56 47 41 37 35 24 24 19 19 18 21 21 27 35 34 31 26 23 21 20 28 27 18 12 8 17 21 24 24 25 25 29 30 30 29 29 28
54 55 56 57 57 58 52 49 47 37 34 32 39 41 39 19 16 18 23 21 27 28 29 29 22 26 25 23 18 18 22 14 -0 17 16 16 16 19 21 25 29 30 28 26 26
54 55 55 57 57 50 49 49 39 39 40 43 43 37 29 18 23 19 20 14 21 15 19 24 21 13 13 14 14 9 5 2 5 13 13 14 14 28 28 30 31 30 28 26 25
53 56 55 53 52 50 47 39 40 40 42 40 34 29 16 9 12 17 16 16 12 13 13 15 12 9 8 11 11 9 5 4 6 11 14 18 24 27 28 28 24 18 20 24 23
52 54 54 52 50 45 41 42 43 47 39 37 23 11 9 12 13 16 17 18 18 9 9 9 11 9 11 7 7 11 14 12 11 14 19 18 16 24 26 24 11 7 17 22 23
51 52 53 51 45 47 44 45 48 48 29 21 13 11 10 10 11 18 22 21 18 15 13 13 10 12 10 7 7 13 16 13 15 19 19 20 20 22 21 13 12 13 19 20 23
50 50 51 51 48 46 47 48 48 36 28 26 24 21 34 34 29 21 23 22 22 17 15 12 15 13 13 12 11 13 17 17 18 22 16 21 18 17 15 12 17 20 20 20 23
49 48 47 46 45 47 47 48 35 30 37 34 34 31 31 32 29 29 32 31 27 23 24 16 11 14 15 16 16 17 20 18 21 18 19 20 11 15 12 16 16 16 20 21 22
50 48 46 45 47 47 47 42 27 32 35 32 25 28 22 29 22 18 23 26 29 25 24 21 16 12 14 13 12 15 16 19 11 13 12 17 6 18 9 15 18 19 17 21 22
50 48 46 46 46 47 45 32 31 34 33 33 31 32 33 25 22 28 28 26 24 29 24 24 14 13 13 12 11 14 20 19 18 15 8 11 10 13 4 9 14 15 17 19 21
46 44 44 46 47 46 39 34 34 34 35 33 29 31 28 33 26 29 32 25 24 22 27 27 21 13 15 16 14 14 14 18 19 13 7 2 3 9 9 14 17 16 17 19 21
47 42 44 46 46 44 33 32 31 34 36 35 33 33 33 33 32 33 33 24 23 21 21 24 22 18 15 14 13 15 21 16 14 16 9 9 12 15 7 9 11 15 15 18 21
44 38 44 45 37 37 33 34 36 34 38 37 36 35 34 33 32 32 29 32 31 24 24 23 26 19 16 16 16 15 12 12 16 12 12 9 7 20 14 12 12 13 15 18 22
41 39 43 44 32 32 34 34 37 34 37 36 34 35 35 33 31 33 27 30 31 29 26 26 22 19 20 21 16 14 13 16 14 13 9 7 11 17 18 13 14 11 15 19 21
42 34 38 39 38 34 33 33 33 37 36 36 35 35 34 32 33 32 30 30 29 33 29 23 25 21 17 19 22 14 18 12 12 14 10 7 8 9 11 12 12 13 15 18 21
43 35 38 33 35 34 34 32 30 33 35 34 32 34 32 30 27 28 32 29 29 32 33 25 20 19 17 13 13 16 20 16 11 11 2 7 -1 10 13 9 8 11 15 17 18
40 37 38 37 36 33 33 32 30 32 34 31 31 34 33 31 32 30 31 29 29 30 29 27 24 15 18 13 10 11 12 19 15 12 10 8 8 16 15 14 12 11 13 15 16
45 44 40 35 34 32 31 32 31 33 34 34 35 32 29 33 33 33 33 31 30 28 27 25 25 20 17 11 16 16 16 16 17 16 11 6 9 12 12 11 14 11 11 12 14
Lifted_Index
8 9 9 9 10 11 12 12 12 11 11 11 11 12 12 13 12 12 13 14 14 13 14 14 15 14 13 12 12 10 7 6 6 6 7 7 7 8 9 9 9 10 11 12 13
7 8 8 8 9 10 11 11 11 11 10 10 11 11 12 12 11 12 14 15 14 14 14 15 14 14 13 12 11 9 7 6 7 7 7 7 7 8 8 8 8 10 11 12 12
6 6 7 7 8 9 9 10 10 10 10 10 10 10 11 11 10 12 15 15 14 14 15 15 14 13 11 11 10 9 8 8 8 8 7 7 7 7 7 7 8 9 10 12 12
5 5 6 6 7 8 8 9 9 9 9 9 9 10 10 10 10 12 15 16 15 15 15 14 13 12 10 10 10 9 8 8 8 8 7 7 7 7 7 8 10 11 11 12 13
4 4 4 5 6 7 7 7 8 8 8 8 9 9 9 9 10 13 15 16 16 15 14 13 12 11 9 9 9 9 8 7 6 6 6 6 6 6 7 9 11 12 12 13 13
3 3 4 4 5 5 6 6 6 7 7 7 8 9 8 8 11 13 14 15 15 14 13 12 10 9 8 7 7 7 6 5 4 3 4 4 4 5 7 10 11 12 12 13 13
2 3 3 3 4 5 5 6 6 6 6 7 8 8 8 9 12 13 14 14 14 13 11 10 8 7 6 6 6 5 4 3 2 3 4 4 4 5 9 11 12 12 12 12 12
3 3 3 3 3 4 4 5 5 6 6 7 8 8 8 10 12 12 12 12 12 11 10 9 8 6 5 5 4 4 3 3 3 4 6 6 5 7 10 11 12 12 12 12 12
4 4 4 4 4 4 4 5 5 5 6 7 8 8 8 9 10 10 10 9 9 9 9 9 8 6 5 4 4 3 3 3 5 7 8 7 6 8 11 12 12 12 12 12 13
6 6 6 6 5 5 4 4 5 5 6 7 7 6 7 8 8 9 9 8 8 8 8 8 7 6 5 5 4 4 4 4 6 8 8 7 7 9 11 11 11 12 12 13 14
8 7 7 6 5 5 4 4 4 5 5 5 5 4 5 6 7 8 8 8 7 7 7 7 6 5 6 6 6 6 5 6 8 9 9 7 7 8 10 11 11 12 13 14 15
8 7 6 5 4 4 3 3 4 4 5 4 4 3 4 5 6 7 8 7 5 5 6 6 5 6 8 8 8 8 7 7 8 9 8 7 6 7 9 10 12 13 14 15 16
7 6 5 4 3 3 3 3 3 4 4 4 3 4 5 6 6 7 8 6 4 3 4 5 6 8 8 8 8 7 7 6 6 7 6 5 4 5 8 10 13 14 15 16 17
6 5 4 3 3 3 3 3 3 3 3 4 4 5 6 6 6 7 7 6 3 3 4 5 6 7 7 7 7 6 6 6 5 5 4 4 3 4 7 10 12 14 15 16 17
7 5 3 3 3 3 3 3 3 2 2 3 4 5 6 5 4 5 6 5 3 3 4 5 6 6 7 7 7 7 6 6 5 4 3 3 3 4 6 9 11 13 15 16 16
7 6 4 3 3 3 3 3 3 2 1 2 2 3 4 3 3 3 3 4 3 3 3 4 6 6 7 7 7 7 6 5 4 3 2 3 3 4 6 9 11 14 15 16 15
7 6 4 3 3 3 3 3 2 1 1 1 2 2 3 3 3 2 2 2 2 2 2 3 4 6 7 7 7 6 5 3 2 1 2 3 3 4 8 11 13 15 16 15 14
6 5 4 4 3 3 3 2 2 1 1 1 2 2 2 2 2 2 1 1 2 2 2 2 3 6 7 8 7 6 5 3 2 1 1 3 4 6 10 13 15 16 16 14 12
5 4 4 4 3 3 3 2 2 2 2 2 2 2 2 2 2 2 2 2 2 3 3 2 3 6 8 8 8 7 6 5 3 2 1 2 4 7 11 13 15 16 15 13 11
4 4 4 4 3 3 3 3 2 2 3 3 3 3 3 3 2 2 2 2 3 3 4 3 3 5 7 8 7 7 7 6 5 2 1 1 3 6 10 12 14 14 13 12 10
3 3 3 4 3 3 3 3 3 3 3 4 3 3 3 3 3 2 2 3 3 3 4 4 3 4 6 7 7 7 6 6 5 3 2 1 3 7 11 13 14 14 13 11 10
3 3 3 4 4 4 4 4 3 3 3 3 3 3 3 3 2 2 2 3 3 3 4 5 4 3 4 6 7 6 6 6 5 4 3 2 4 9 12 14 14 14 13 11 10
2 3 3 4 4 4 4 4 3 3 3 3 3 3 3 2 2 2 3 3 4 4 5 5 4 2 3 5 6 6 6 7 6 5 3 3 5 9 13 14 15 14 12 11 10
2 3 3 4 4 3 3 3 3 3 3 3 3 3 2 2 2 2 3 4 4 5 6 6 4 3 3 4 5 5 6 7 6 5 4 3 6 9 12 14 14 14 12 11 10
2 3 3 3 3 3 3 3 3 3 3 3 3 2 2 2 2 2 3 4 4 5 6 5 4 3 4 4 5 5 5 5 5 5 4 5 7 10 13 14 15 14 12 11 10
2 2 2 3 3 3 3 4 3 3 4 3 3 3 2 2 2 3 3 4 5 5 6 5 4 3 4 4 4 4 4 4 5 6 5 5 7 11 14 15 15 14 12 10 9
1 2 2 3 3 3 3 4 4 4 4 4 4 3 3 2 3 4 4 5 5 5 5 5 4 3 3 4 4 3 3 4 5 6 6 6 8 12 14 15 15 13 12 10 9